Mmabatho, South Africa

8:12 PM SAST on October 01, 2016 (GMT +0200)
Mafikeng International

Weather History for FAMM - October, 2012

Change the Weather History Date:

Monday, October 22, 2012

  Actual Average Record
Temperature  
Mean Temperature 70 °F -  
Max Temperature 87 °F - - ()
Min Temperature 53 °F - - ()
Cooling Degree Days 5    
Growing Degree Days 20 (Base 50)    
Moisture  
Dew Point 35 °F    
Average Humidity 41    
Maximum Humidity 88    
Minimum Humidity 4    
Precipitation  
Precipitation 0.00 in - - ()
Sea Level Pressure  
Sea Level Pressure 30.06 in    
Wind  
Wind Speed 4 mph ()    
Max Wind Speed 9 mph    
Max Gust Speed -    
Visibility 10.5 miles    
Events      
T = Trace of Precipitation, MM = Missing Value Source: Averaged Metar Reports

Daily Weather History Graph

Daily Weather History Graph

Search for Another Location

Airport or City:

Trip Planner

Search our weather history database for the weather conditions in past years. The results will help you decide how hot, cold, wet, or windy it might be!

Date:

Astronomy

Oct. 22, 2012 Rise Set
Actual Time 5:36 AM SAST 6:28 PM SAST
Civil Twilight 5:12 AM SAST 6:51 PM SAST
Nautical Twilight 4:44 AM SAST 7:19 PM SAST
Astronomical Twilight 4:16 AM SAST 7:48 PM SAST
Moon 11:59 AM SAST (10/22) 12:36 AM SAST (10/22)
Length of Visible Light 13h 39m
Length of Day
12h 51m
First Quarter, 53% of the Moon is Illuminated
Oct 22
First Quarter
Oct 29
Full
Nov 7
Last Quarter
Nov 14
New
Nov 20
First Quarter

Hourly Weather History & Observations

Time (SAST) Temp. Dew Point Humidity Pressure Visibility Wind Dir Wind Speed Gust Speed Precip Events Conditions
12:00 AM 60.8 °F 50.0 °F 68% 30.09 in - East 2.3 mph - N/A   Unknown
1:00 AM 57.2 °F 50.0 °F 77% 30.09 in - ESE 4.6 mph - N/A   Unknown
2:00 AM 57 °F 49 °F 68%  in - ENE 3.5 mph - -  
2:00 AM 55.4 °F 48.2 °F 77% 30.09 in - ENE 3.5 mph - N/A   Unknown
3:00 AM 53.6 °F 48.2 °F 82% 30.09 in - East 3.5 mph - N/A   Unknown
4:00 AM 53.6 °F 48.2 °F 82% 30.09 in - SE 4.6 mph - N/A   Unknown
5:00 AM 53 °F 49 °F 81%  in 19 mi ESE 6.9 mph - -  
5:00 AM 51.8 °F 48.2 °F 88% 30.09 in - ESE 5.8 mph - N/A   Clear
6:00 AM 53.6 °F 48.2 °F 82% 30.09 in - ESE 4.6 mph - N/A   Clear
6:41 AM 57.2 °F 50.0 °F 77% 30.12 in - SE 3.5 mph - N/A   Clear
7:00 AM 59.0 °F 50.0 °F 72% 30.12 in - ESE 2.3 mph - N/A   Clear
8:00 AM 63 °F 51 °F 56%  in 19 mi NE 3.5 mph - -   Partly Cloudy
8:00 AM 62.6 °F 50.0 °F 63% 30.15 in - NE 2.3 mph - N/A   Clear
9:00 AM 68.0 °F 51.8 °F 56% 30.12 in - NE 2.3 mph - N/A   Clear
10:00 AM 71.6 °F 51.8 °F 50% 30.12 in 6.2 mi SE 4.6 mph - N/A   Partly Cloudy
11:00 AM 75.2 °F 50.0 °F 41% 30.09 in 6.2 mi NW 3.5 mph - N/A   Partly Cloudy
12:00 PM 78.8 °F 48.2 °F 34% 30.06 in 6.2 mi West 5.8 mph - N/A   Partly Cloudy
1:00 PM 80.6 °F 46.4 °F 30% 30.04 in 6.2 mi NW 4.6 mph - N/A   Partly Cloudy
2:00 PM 83 °F 42 °F 14%  in 19 mi WSW 6.9 mph - -   Scattered Clouds
2:00 PM 82.4 °F 41.0 °F 23% 30.01 in 6.2 mi WSW 6.9 mph - N/A   Partly Cloudy
3:00 PM 86.0 °F 33.8 °F 15% 30.01 in 6.2 mi West 6.9 mph - N/A   Partly Cloudy
4:00 PM 86.0 °F 24.8 °F 11% 29.98 in 6.2 mi WSW 8.1 mph - N/A   Partly Cloudy
5:00 PM 86 °F 15 °F 4%  in 19 mi SW 9.2 mph - -   Scattered Clouds
5:00 PM 86.0 °F 15.8 °F 7% 29.98 in 6.2 mi SW 8.1 mph - N/A   Partly Cloudy
6:00 PM 84.2 °F 6.8 °F 5% 29.98 in 6.2 mi SW 8.1 mph - N/A   Partly Cloudy
7:00 PM 77.0 °F 6.8 °F 7% 30.01 in 6.2 mi SSW 8.1 mph - N/A   Partly Cloudy
8:00 PM 72 °F 8 °F 4%  in 19 mi South 6.9 mph - -  
8:00 PM 71.6 °F 8.6 °F 9% 30.01 in - South 5.8 mph - N/A   Clear
9:00 PM 68.0 °F 6.8 °F 9% 30.04 in - SSE 9.2 mph - N/A   Unknown
10:00 PM 66.2 °F 8.6 °F 11% 30.04 in - SE 8.1 mph - N/A   Unknown
11:00 PM 68 °F 7 °F 4%  in - SE 9.2 mph - -  
11:00 PM 66.2 °F 8.6 °F 11% 30.04 in - SE 9.2 mph - N/A   Unknown